PEGASUS DEB, 23986

Orbit data source: Space-Track

PEGASUS DEB, 23986 is space debris in LEO originally from a launch on Thu, 19 May 1994 UTC launched from the Air Force Western Test Range (AFWTR). Debris objects in space refer to the collection of defunct objects orbiting the Earth. Examples of debris include non-operational satellites, rocket bodies, and fragments generated from explosions, collisions, or faulty payload assembly.

Loading next visibility...
Identifier
23986, 1994-029AG
Orbit
LEO
Country
Flag of USUS
Related business
Manufacturer
Unknown
Mission
Spacecraft
Bus & Motor
Unknown
Mass
Unknown
Launch date (UTC)
1994-05-19 (32 years ago)
Launch vehicle
Unknown
Launch site
Air Force Western Test Range (AFWTR)
Object type
Payload
Rocket body
Debris
Shape & HBR
Unknown shape, 0.1 m
Radar Cross Section
Medium (>0.1 m² and <1 m²)

Expand to show TLE details & history
Last TLE update: 17 hours ago

TLE from 17 hours ago
0 PEGASUS DEB
1 23986U 94029AG  26173.78250977  .00022910  00000-0  51873-3 0  9997
2 23986  82.0376 331.7176 0027157 145.4818 214.8199 15.42580346631638
Epoch: 2026-06-22T18:46Z
TLE epoch observation values (Epoch: 2026-06-22T18:46:48.844Z)
Latitude
0.00005°
Longitude
139.05061°
Altitude
456.818 km
Speed
7.63 km/s
True Right ascension
22h 06m 52s
True Declination
0° 00' 00"
Sunlit
Object was in full shadow at epoch
Visualization orbit readout
Latitude
Unknown
Longitude
Unknown
Altitude
Unknown
Speed
Unknown
Apparent Right ascension
Unknown
Apparent Declination
Unknown
Sunlit
N/A
Visualization observer readout
Local Sidereal Time
22:31:31
Azimuth
Unknown
Elevation
Unknown
Doppler factor
Unknown
Orbital elements
Apogee altitude
453.961 km
Perigee altitude
416.954 km
Semi-major axis
6,813.595 km
Eccentricity
0.00272
Inclination
82.0376°
RAAN
331.7176°
Arg. of periapsis
145.4818°
True anomaly
214.6427°
Mean anomaly
214.8199°
Eccentric anomaly
214.73125°
Mean motion
3.85904 °/min
Orbital period
93.29 mins
BSTAR
0.00051873
Loading maneuver chart data...
Computing Atmospheric mass density...

Documentation

Showing up to 5 results
|